| time (UTC) | temp F | wind direction | speed MPH | gust MPH | rain 1hr in | rain 24hr in | rain mn in | humidity % | barometer mb |
| 20260905051507 | 58 | 280 | 1.0 | 5.0 | 0.02 | 0.02 | 0.02 | 84 | 1018.2 |
| 20260905050022 | 59 | 277 | 1.0 | 3.0 | 0.00 | 0.01 | 0.01 | 82 | 1017.6 |
| 20260905044528 | 58 | 262 | 0.0 | 4.0 | 0.00 | 0.01 | 0.01 | 82 | 1017.1 |
| 20260905043107 | 58 | 278 | 0.0 | 3.0 | 0.01 | 0.01 | 0.01 | 83 | 1017.4 |
| 20260905041550 | 58 | 264 | 0.0 | 4.0 | 0.01 | 0.01 | 0.01 | 83 | 1017.0 |
| 20260905040006 | 59 | 223 | 0.0 | 2.0 | 0.01 | 0.01 | 0.01 | 82 | 1016.8 |
| 20260905034511 | 60 | 296 | 1.0 | 4.0 | 0.01 | 0.01 | 0.01 | 78 | 1016.5 |
| 20260905033025 | 62 | 334 | 1.0 | 5.0 | 0.00 | 0.00 | 0.00 | 73 | 1016.4 |
| 20260905031530 | 62 | 224 | 1.0 | 5.0 | 0.00 | 0.00 | 0.00 | 71 | 1015.7 |
| 20260905030052 | 63 | 285 | 0.0 | 5.0 | 0.00 | 0.00 | 0.00 | 69 | 1015.7 |
| 20260905024517 | 63 | 294 | 1.0 | 6.0 | 0.00 | 0.00 | 0.00 | 67 | 1016.2 |
| 20260905023016 | 63 | 330 | 1.0 | 3.0 | 0.00 | 0.00 | 0.00 | 72 | 1015.3 |
| 20260905021547 | 63 | 345 | 0.0 | 3.0 | 0.00 | 0.00 | 0.00 | 72 | 1014.9 |
| 20260905020049 | 64 | 315 | 0.0 | 4.0 | 0.00 | 0.00 | 0.00 | 72 | 1015.1 |
| 20260905014508 | 64 | 255 | 1.0 | 6.0 | 0.00 | 0.00 | 0.00 | 72 | 1014.8 |
| 20260905013020 | 64 | 273 | 0.0 | 11.0 | 0.00 | 0.00 | 0.00 | 73 | 1014.7 |
| 20260905011532 | 64 | 48 | 2.0 | 9.0 | 0.00 | 0.00 | 0.00 | 73 | 1014.6 |
| 20260905010036 | 65 | 309 | 1.0 | 10.0 | 0.00 | 0.00 | 0.00 | 73 | 1014.4 |
| 20260905004552 | 66 | 68 | 3.0 | 11.0 | 0.00 | 0.00 | 0.00 | 71 | 1014.5 |
| 20260905003058 | 69 | 44 | 4.0 | 15.0 | 0.00 | 0.00 | 0.00 | 68 | 1013.7 |
| 20260905001513 | 73 | 248 | 1.0 | 5.0 | 0.00 | 0.00 | 0.00 | 61 | 1012.1 |
| 20260905000029 | 73 | 280 | 0.0 | 3.0 | 0.00 | 0.00 | 0.00 | 61 | 1012.1 |
| 20260904234540 | 73 | 253 | 0.0 | 4.0 | 0.00 | 0.00 | 0.00 | 61 | 1012.0 |
| 20260904233100 | 73 | 264 | 0.0 | 5.0 | 0.00 | 0.00 | 0.00 | 60 | 1012.0 |
| 20260904231518 | 73 | 287 | 0.0 | 4.0 | 0.00 | 0.00 | 0.00 | 60 | 1012.0 |
| 20260904230013 | 72 | 147 | 0.0 | 4.0 | 0.00 | 0.00 | 0.00 | 61 | 1011.9 |
| 20260904224537 | 72 | 248 | 0.0 | 2.0 | 0.00 | 0.00 | 0.00 | 61 | 1011.8 |
| 20260904223025 | 72 | 272 | 0.0 | 2.0 | 0.00 | 0.00 | 0.00 | 62 | 1011.8 |
| 20260904221548 | 70 | 225 | 0.0 | 1.0 | 0.00 | 0.00 | 0.00 | 64 | 1011.7 |
| 20260904220010 | 70 | 266 | 0.0 | 1.0 | 0.00 | 0.00 | 0.00 | 64 | 1011.6 |
| 20260904214606 | 69 | 264 | 0.0 | 1.0 | 0.00 | 0.00 | 0.00 | 66 | 1011.5 |
| 20260904213016 | 69 | 264 | 0.0 | 0.0 | 0.00 | 0.00 | 0.00 | 66 | 1011.5 |
| 20260904211513 | 70 | 264 | 0.0 | 1.0 | 0.00 | 0.00 | 0.00 | 64 | 1011.7 |
| 20260904210101 | 71 | 264 | 0.0 | 2.0 | 0.00 | 0.00 | 0.00 | 63 | 1011.6 |
| 20260904204503 | 70 | 251 | 0.0 | 2.0 | 0.00 | 0.00 | 0.00 | 63 | 1011.6 |
| 20260904203048 | 69 | 252 | 0.0 | 1.0 | 0.00 | 0.00 | 0.00 | 65 | 1011.7 |
| 20260904201546 | 68 | 240 | 0.0 | 1.0 | 0.00 | 0.00 | 0.00 | 67 | 1011.7 |
| 20260904200011 | 68 | 229 | 0.0 | 0.0 | 0.00 | 0.00 | 0.00 | 67 | 1012.0 |
| 20260904194523 | 69 | 229 | 0.0 | 0.0 | 0.00 | 0.00 | 0.00 | 67 | 1012.4 |
| 20260904193043 | 70 | 229 | 0.0 | 0.0 | 0.00 | 0.00 | 0.00 | 64 | 1012.2 |
| 20260904191547 | 71 | 229 | 0.0 | 0.0 | 0.00 | 0.00 | 0.00 | 62 | 1012.2 |
| 20260904190010 | 72 | 261 | 0.0 | 1.0 | 0.00 | 0.00 | 0.00 | 60 | 1012.2 |
| 20260904184528 | 73 | 226 | 0.0 | 2.0 | 0.00 | 0.00 | 0.00 | 58 | 1012.1 |
| 20260904183048 | 74 | 285 | 0.0 | 0.0 | 0.00 | 0.00 | 0.00 | 58 | 1012.0 |
| 20260904181501 | 75 | 285 | 0.0 | 1.0 | 0.00 | 0.00 | 0.00 | 56 | 1011.8 |
| 20260904180048 | 77 | 240 | 0.0 | 1.0 | 0.00 | 0.00 | 0.00 | 53 | 1011.6 |
| 20260904174607 | 78 | 231 | 0.0 | 2.0 | 0.00 | 0.00 | 0.00 | 51 | 1011.4 |
| 20260904173030 | 79 | 241 | 0.0 | 3.0 | 0.00 | 0.00 | 0.00 | 50 | 1011.3 |
| 20260904171525 | 80 | 226 | 2.0 | 9.0 | 0.00 | 0.00 | 0.00 | 49 | 1011.1 |
| 20260904170050 | 81 | 292 | 2.0 | 6.0 | 0.00 | 0.00 | 0.00 | 49 | 1011.3 |
| 20260904164501 | 82 | 219 | 0.0 | 6.0 | 0.00 | 0.00 | 0.00 | 48 | 1011.3 |
| 20260904163011 | 83 | 202 | 4.0 | 8.0 | 0.00 | 0.00 | 0.00 | 46 | 1011.5 |
| 20260904161534 | 83 | 226 | 1.0 | 9.0 | 0.00 | 0.00 | 0.00 | 47 | 1011.5 |
| 20260904160031 | 83 | 245 | 2.0 | 7.0 | 0.00 | 0.00 | 0.00 | 47 | 1011.7 |
| 20260904154550 | 83 | 255 | 3.0 | 10.0 | 0.00 | 0.00 | 0.00 | 47 | 1012.0 |
| 20260904153105 | 83 | 240 | 2.0 | 10.0 | 0.00 | 0.00 | 0.00 | 48 | 1012.3 |
| 20260904151518 | 84 | 274 | 3.0 | 10.0 | 0.00 | 0.00 | 0.00 | 47 | 1012.5 |
| 20260904150028 | 84 | 172 | 2.0 | 11.0 | 0.00 | 0.00 | 0.00 | 48 | 1012.8 |
| 20260904144542 | 83 | 210 | 2.0 | 14.0 | 0.00 | 0.00 | 0.00 | 48 | 1013.0 |
| 20260904143056 | 83 | 219 | 3.0 | 10.0 | 0.00 | 0.00 | 0.00 | 49 | 1013.2 |
| 20260904141525 | 83 | 229 | 2.0 | 14.0 | 0.00 | 0.00 | 0.00 | 49 | 1013.3 |
| 20260904140030 | 82 | 224 | 3.0 | 13.0 | 0.00 | 0.00 | 0.00 | 49 | 1013.5 |
| 20260904134540 | 82 | 195 | 4.0 | 13.0 | 0.00 | 0.00 | 0.00 | 49 | 1013.7 |
| 20260904133041 | 82 | 256 | 4.0 | 11.0 | 0.00 | 0.00 | 0.00 | 49 | 1013.9 |
| 20260904131501 | 82 | 187 | 5.0 | 12.0 | 0.00 | 0.00 | 0.00 | 48 | 1014.1 |
| 20260904130046 | 82 | 325 | 3.0 | 12.0 | 0.00 | 0.00 | 0.00 | 49 | 1014.4 |
| 20260904124609 | 81 | 280 | 3.0 | 14.0 | 0.00 | 0.00 | 0.00 | 50 | 1014.6 |
| 20260904123115 | 81 | 248 | 5.0 | 13.0 | 0.00 | 0.00 | 0.00 | 51 | 1014.7 |
| 20260904121519 | 81 | 285 | 5.0 | 12.0 | 0.00 | 0.00 | 0.00 | 51 | 1014.9 |
| 20260904120035 | 80 | 20 | 4.0 | 11.0 | 0.00 | 0.00 | 0.00 | 52 | 1015.1 |
| 20260904114542 | 80 | 244 | 4.0 | 12.0 | 0.00 | 0.00 | 0.00 | 52 | 1015.3 |
| 20260904113008 | 78 | 335 | 3.0 | 12.0 | 0.00 | 0.00 | 0.00 | 55 | 1015.5 |
| 20260904111514 | 79 | 281 | 2.0 | 9.0 | 0.00 | 0.00 | 0.00 | 55 | 1015.8 |
| 20260904110031 | 78 | 245 | 4.0 | 14.0 | 0.00 | 0.00 | 0.00 | 55 | 1016.1 |
| 20260904104538 | 79 | 254 | 3.0 | 18.0 | 0.00 | 0.00 | 0.00 | 54 | 1016.1 |
| 20260904103101 | 80 | 229 | 2.0 | 11.0 | 0.00 | 0.00 | 0.00 | 54 | 1015.9 |
| 20260904101608 | 79 | 287 | 4.0 | 12.0 | 0.00 | 0.00 | 0.00 | 55 | 1016.2 |
| 20260904100026 | 78 | 212 | 4.0 | 10.0 | 0.00 | 0.00 | 0.00 | 56 | 1016.7 |
| 20260904094539 | 78 | 307 | 1.0 | 10.0 | 0.00 | 0.00 | 0.00 | 57 | 1016.8 |
| 20260904093048 | 77 | 297 | 4.0 | 16.0 | 0.00 | 0.00 | 0.00 | 59 | 1017.4 |
| 20260904091550 | 76 | 346 | 4.0 | 10.0 | 0.00 | 0.00 | 0.00 | 59 | 1017.5 |
| 20260904084604 | 74 | 224 | 2.0 | 11.0 | 0.00 | 0.00 | 0.00 | 64 | 1017.8 |
| 20260904083022 | 73 | 262 | 3.0 | 14.0 | 0.00 | 0.00 | 0.00 | 64 | 1018.0 |
| 20260904081527 | 72 | 281 | 2.0 | 6.0 | 0.00 | 0.00 | 0.00 | 66 | 1017.9 |
| 20260904080047 | 71 | 250 | 3.0 | 6.0 | 0.00 | 0.00 | 0.00 | 68 | 1018.0 |
| 20260904074531 | 70 | 199 | 2.0 | 8.0 | 0.00 | 0.00 | 0.00 | 68 | 1018.1 |
| 20260904073101 | 70 | 245 | 4.0 | 10.0 | 0.00 | 0.00 | 0.00 | 67 | 1018.1 |
| 20260904071507 | 70 | 179 | 2.0 | 9.0 | 0.00 | 0.00 | 0.00 | 67 | 1018.2 |
| 20260904071505 | 70 | 253 | 2.0 | 9.0 | 0.00 | 0.00 | 0.00 | 67 | 1018.2 |
| 20260904070015 | 70 | 260 | 2.0 | 9.0 | 0.00 | 0.00 | 0.00 | 69 | 1018.2 |
| 20260904064539 | 69 | 288 | 0.0 | 7.0 | 0.00 | 0.00 | 0.00 | 70 | 1018.1 |
| 20260904063111 | 68 | 281 | 0.0 | 5.0 | 0.00 | 0.00 | 0.00 | 71 | 1018.3 |
| 20260904061524 | 67 | 234 | 1.0 | 6.0 | 0.00 | 0.00 | 0.00 | 72 | 1018.5 |
| 20260904060027 | 66 | 269 | 2.0 | 6.0 | 0.00 | 0.00 | 0.00 | 72 | 1018.4 |
| 20260904054551 | 65 | 264 | 0.0 | 3.0 | 0.00 | 0.00 | 0.00 | 73 | 1018.3 |
| 20260904053056 | 65 | 243 | 1.0 | 6.0 | 0.00 | 0.00 | 0.00 | 75 | 1018.3 |